When you browse on this site, cookies collect data to enhance your experience and personalize the content and advertising you see.
Visit our Privacy Policy to learn more. By continuing to use the site, you agree to this use of cookies and data.
  • In Portugal
  • List of Countries
  • For 7 days
  • Water Temperature
  • Satellite Maps
  • Weather Map
  • Weather Widgets
  • user-avatar
    Login

    Hourly Weather Konyushkino

    Today, 21 April, Sunday

    Time Temperature Precipitation Wind Pressure Humidity
    00:00 +4°C° 0.1 mm 3 mps 764 mmHg 70%
    01:00 +4°C° 0.1 mm 3 mps 764 mmHg 72%
    02:00 +4°C° 0 mm 2 mps 764 mmHg 80%
    03:00 +3°C° 0 mm 3 mps 764 mmHg 80%
    04:00 +2°C° 0 mm 3 mps 764 mmHg 80%
    05:00 +2°C° 0 mm 3 mps 764 mmHg 79%
    06:00 +3°C° 0 mm 3 mps 764 mmHg 74%
    07:00 +5°C° 0 mm 4 mps 765 mmHg 69%
    08:00 +6°C° 0 mm 4 mps 765 mmHg 63%
    09:00 +8°C° 0 mm 4 mps 765 mmHg 56%
    10:00 +10°C° 0 mm 3 mps 765 mmHg 50%
    11:00 +12°C° 0 mm 3 mps 765 mmHg 44%
    12:00 +12°C° 0 mm 3 mps 765 mmHg 41%
    13:00 +13°C° 0 mm 3 mps 765 mmHg 39%
    14:00 +14°C° 0 mm 3 mps 765 mmHg 36%
    15:00 +14°C° 0 mm 3 mps 765 mmHg 36%
    16:00 +14°C° 0 mm 3 mps 765 mmHg 37%
    17:00 +15°C° 0 mm 2 mps 764 mmHg 37%
    18:00 +13°C° 0 mm 2 mps 765 mmHg 44%
    19:00 +12°C° 0 mm 2 mps 765 mmHg 51%
    20:00 +9°C° 0 mm 2 mps 765 mmHg 57%
    21:00 +8°C° 0 mm 2 mps 765 mmHg 60%
    22:00 +8°C° 0 mm 2 mps 766 mmHg 63%
    23:00 +7°C° 0 mm 2 mps 766 mmHg 66%

    Tomorrow, 22 April, Monday

    Time Temperature Precipitation Wind Pressure Humidity
    00:00 +7°C° 0 mm 2 mps 766 mmHg 68%
    01:00 +6°C° 0 mm 2 mps 766 mmHg 69%
    02:00 +7°C° 0 mm 1 mps 766 mmHg 71%
    03:00 +7°C° 0 mm 1 mps 766 mmHg 73%
    04:00 +7°C° 0 mm 1 mps 766 mmHg 75%
    05:00 +6°C° 0 mm 1 mps 766 mmHg 77%
    06:00 +8°C° 0 mm 1 mps 767 mmHg 71%
    07:00 +10°C° 0 mm 1 mps 767 mmHg 65%
    08:00 +12°C° 0 mm 1 mps 767 mmHg 59%
    09:00 +14°C° 0 mm 2 mps 767 mmHg 52%
    10:00 +16°C° 0 mm 2 mps 767 mmHg 44%
    11:00 +18°C° 0 mm 2 mps 767 mmHg 37%
    12:00 +18°C° 0 mm 2 mps 767 mmHg 35%
    13:00 +19°C° 0 mm 2 mps 767 mmHg 34%
    14:00 +19°C° 0 mm 2 mps 767 mmHg 32%
    15:00 +19°C° 0 mm 2 mps 767 mmHg 33%
    16:00 +19°C° 0 mm 2 mps 767 mmHg 34%
    17:00 +18°C° 0 mm 2 mps 766 mmHg 35%
    18:00 +17°C° 0 mm 2 mps 767 mmHg 41%
    19:00 +15°C° 0 mm 2 mps 767 mmHg 48%
    20:00 +13°C° 0 mm 2 mps 767 mmHg 55%
    21:00 +12°C° 0 mm 2 mps 767 mmHg 57%
    22:00 +10°C° 0 mm 2 mps 768 mmHg 60%
    23:00 +10°C° 0 mm 2 mps 768 mmHg 62%

    Day after tomorrow, 23 April, Tuesday

    Time Temperature Precipitation Wind Pressure Humidity
    00:00 +9°C° 0 mm 2 mps 768 mmHg 63%
    01:00 +9°C° 0 mm 2 mps 768 mmHg 63%
    02:00 +8°C° 0 mm 2 mps 768 mmHg 64%
    03:00 +8°C° 0 mm 2 mps 769 mmHg 65%
    04:00 +8°C° 0 mm 1 mps 769 mmHg 66%
    05:00 +8°C° 0 mm 1 mps 769 mmHg 67%
    06:00 +10°C° 0 mm 1 mps 769 mmHg 62%
    07:00 +12°C° 0 mm 1 mps 769 mmHg 56%
    08:00 +14°C° 0 mm 1 mps 769 mmHg 50%
    09:00 +15°C° 0 mm 1 mps 769 mmHg 45%
    10:00 +18°C° 0 mm 1 mps 769 mmHg 40%
    11:00 +18°C° 0 mm 2 mps 769 mmHg 34%
    12:00 +19°C° 0 mm 2 mps 769 mmHg 33%
    13:00 +20°C° 0 mm 1 mps 769 mmHg 32%
    14:00 +21°C° 0 mm 1 mps 769 mmHg 30%
    15:00 +20°C° 0 mm 1 mps 768 mmHg 31%
    16:00 +20°C° 0 mm 1 mps 768 mmHg 31%
    17:00 +18°C° 0 mm 0 mps 768 mmHg 32%
    18:00 +18°C° 0 mm 1 mps 768 mmHg 37%
    19:00 +15°C° 0 mm 1 mps 768 mmHg 42%
    20:00 +13°C° 0 mm 1 mps 768 mmHg 48%
    21:00 +13°C° 0 mm 1 mps 768 mmHg 50%
    22:00 +12°C° 0 mm 1 mps 768 mmHg 53%
    23:00 +11°C° 0 mm 1 mps 769 mmHg 55%

    24 April, Wednesday

    Time Temperature Precipitation Wind Pressure Humidity
    00:00 +11°C° 0 mm 1 mps 769 mmHg 57%
    01:00 +10°C° 0 mm 1 mps 769 mmHg 60%
    02:00 +10°C° 0 mm 1 mps 769 mmHg 62%
    03:00 +8°C° 0 mm 0 mps 769 mmHg 63%
    04:00 +8°C° 0 mm 0 mps 769 mmHg 64%
    05:00 +8°C° 0 mm 0 mps 769 mmHg 65%
    06:00 +10°C° 0 mm 0 mps 769 mmHg 59%
    07:00 +13°C° 0 mm 1 mps 769 mmHg 54%
    08:00 +15°C° 0 mm 1 mps 769 mmHg 48%
    09:00 +16°C° 0 mm 1 mps 769 mmHg 43%
    10:00 +18°C° 0 mm 2 mps 769 mmHg 38%
    11:00 +19°C° 0 mm 2 mps 768 mmHg 33%
    12:00 +20°C° 0 mm 3 mps 768 mmHg 33%
    13:00 +20°C° 0 mm 3 mps 768 mmHg 32%
    14:00 +21°C° 0 mm 3 mps 768 mmHg 31%
    15:00 +20°C° 0 mm 3 mps 767 mmHg 32%
    16:00 +20°C° 0 mm 3 mps 767 mmHg 33%
    17:00 +20°C° 0 mm 3 mps 766 mmHg 34%
    18:00 +18°C° 0 mm 2 mps 766 mmHg 40%
    19:00 +16°C° 0 mm 2 mps 766 mmHg 47%
    20:00 +14°C° 0 mm 2 mps 766 mmHg 53%
    21:00 +14°C° 0 mm 2 mps 766 mmHg 56%
    22:00 +13°C° 0 mm 2 mps 766 mmHg 59%
    23:00 +12°C° 0 mm 2 mps 766 mmHg 62%

    25 April, Thursday

    Time Temperature Precipitation Wind Pressure Humidity
    00:00 +12°C° 0 mm 2 mps 766 mmHg 64%
    01:00 +10°C° 0 mm 2 mps 766 mmHg 66%
    02:00 +10°C° 0 mm 2 mps 766 mmHg 68%
    03:00 +9°C° 0 mm 2 mps 766 mmHg 69%
    04:00 +9°C° 0 mm 3 mps 766 mmHg 70%
    05:00 +9°C° 0 mm 3 mps 766 mmHg 71%
    06:00 +10°C° 0 mm 3 mps 766 mmHg 66%
    07:00 +12°C° 0 mm 3 mps 766 mmHg 60%
    08:00 +14°C° 0 mm 4 mps 765 mmHg 54%
    09:00 +17°C° 0 mm 4 mps 765 mmHg 49%
    10:00 +17°C° 0 mm 5 mps 765 mmHg 43%
    11:00 +20°C° 0 mm 6 mps 765 mmHg 37%
    12:00 +20°C° 0 mm 6 mps 764 mmHg 36%
    13:00 +21°C° 0 mm 6 mps 764 mmHg 36%
    14:00 +21°C° 0 mm 5 mps 763 mmHg 35%
    15:00 +21°C° 0 mm 5 mps 763 mmHg 37%
    16:00 +20°C° 0 mm 5 mps 762 mmHg 39%
    17:00 +20°C° 0 mm 4 mps 762 mmHg 41%
    18:00 +18°C° 0 mm 4 mps 762 mmHg 46%
    19:00 +17°C° 0 mm 3 mps 762 mmHg 51%
    20:00 +14°C° 0 mm 3 mps 762 mmHg 57%
    21:00 +14°C° 0 mm 3 mps 761 mmHg 59%
    22:00 +13°C° 0 mm 3 mps 761 mmHg 62%
    23:00 +12°C° 0 mm 3 mps 761 mmHg 64%

    26 April, Friday

    Time Temperature Precipitation Wind Pressure Humidity
    00:00 +12°C° 0 mm 3 mps 761 mmHg 66%
    01:00 +11°C° 0 mm 3 mps 760 mmHg 69%
    02:00 +11°C° 0 mm 3 mps 760 mmHg 71%
    03:00 +11°C° 0 mm 3 mps 760 mmHg 73%
    04:00 +10°C° 0 mm 3 mps 760 mmHg 74%
    05:00 +10°C° 0 mm 3 mps 759 mmHg 76%
    06:00 +11°C° 0 mm 3 mps 759 mmHg 71%
    07:00 +13°C° 0 mm 3 mps 759 mmHg 66%
    08:00 +14°C° 0 mm 3 mps 759 mmHg 61%
    09:00 +17°C° 0 mm 4 mps 758 mmHg 56%
    10:00 +19°C° 0 mm 4 mps 758 mmHg 51%
    11:00 +21°C° 0 mm 4 mps 757 mmHg 46%
    12:00 +21°C° 0 mm 4 mps 757 mmHg 45%
    13:00 +22°C° 0 mm 4 mps 756 mmHg 44%
    14:00 +23°C° 0 mm 4 mps 756 mmHg 42%
    15:00 +23°C° 0 mm 4 mps 755 mmHg 43%
    16:00 +24°C° 0 mm 3 mps 755 mmHg 44%
    17:00 +24°C° 0 mm 3 mps 755 mmHg 44%
    18:00 +21°C° 0 mm 2 mps 755 mmHg 51%
    19:00 +19°C° 0 mm 2 mps 754 mmHg 58%
    20:00 +18°C° 0 mm 1 mps 754 mmHg 65%
    21:00 +16°C° 0 mm 1 mps 754 mmHg 69%
    22:00 +16°C° 0 mm 1 mps 754 mmHg 72%
    23:00 +15°C° 0 mm 1 mps 754 mmHg 75%
    Show more